EW7119 Weather Reports


Display with metric or nautical units.
time (UTC)temp
F
wind
direction
speed
MPH
gust
MPH
rain 1hr
in
rain 24hr
in
rain mn
in
humidity
%
barometer
mb
20260902170041 64 328 0.0 0.0 0.00 0.00 0.00 43 1006.3
20260902164551 64 322 0.0 0.0 0.00 0.00 0.00 43 1006.3
20260902163105 63 308 0.0 0.0 0.00 0.00 0.00 42 1006.4
20260902161608 62 44 0.0 0.0 0.00 0.00 0.00 46 1006.8
20260902160026 62 315 0.0 0.0 0.00 0.00 0.00 43 1006.9
20260902154530 62 319 0.0 0.0 0.00 0.00 0.00 47 1007.0
20260902153059 61 35 0.0 0.0 0.00 0.00 0.00 44 1007.1
20260902151607 60 269 0.0 0.0 0.00 0.00 0.00 47 1007.3
20260902150007 59 288 0.0 0.0 0.00 0.00 0.00 48 1007.4
20260902144529 58 327 0.0 0.0 0.00 0.00 0.00 48 1007.4
20260902143041 57 355 0.0 0.0 0.00 0.00 0.00 48 1007.4
20260902141541 55 15 0.0 0.0 0.00 0.00 0.00 52 1007.2
20260902140055 54 18 0.0 0.0 0.00 0.00 0.00 55 1007.3
20260902134557 53 33 0.0 0.0 0.00 0.00 0.00 59 1007.1
20260902133059 52 34 0.0 0.0 0.00 0.00 0.00 56 1006.8
20260902131553 51 30 0.0 0.0 0.00 0.00 0.00 58 1006.8
20260902130057 50 30 0.0 0.0 0.00 0.00 0.00 59 1006.6
20260902124600 50 79 0.0 0.0 0.00 0.00 0.00 60 1006.6
20260902123112 50 88 0.0 0.0 0.00 0.00 0.00 60 1006.4
20260902121511 51 88 0.0 0.0 0.00 0.00 0.00 58 1006.2
20260902120012 52 88 0.0 0.0 0.00 0.00 0.00 57 1006.2
20260902114538 52 90 0.0 0.0 0.00 0.00 0.00 57 1006.0
20260902113035 52 89 0.0 0.0 0.00 0.00 0.00 58 1006.0
20260902111551 52 90 0.0 0.0 0.00 0.00 0.00 58 1006.0
20260902110057 52 87 0.0 0.0 0.00 0.00 0.00 60 1005.9
20260902104559 52 57 0.0 0.0 0.00 0.00 0.00 61 1006.0
20260902103030 52 138 0.0 0.0 0.00 0.00 0.00 61 1006.0
20260902101542 51 138 0.0 0.0 0.00 0.00 0.00 62 1005.9
20260902094543 51 138 0.0 0.0 0.00 0.00 0.00 66 1006.1
20260902093046 51 143 0.0 0.0 0.00 0.00 0.00 66 1006.0
20260902091534 51 143 0.0 0.0 0.00 0.00 0.00 69 1006.0
20260902090043 50 143 0.0 0.0 0.00 0.00 0.00 70 1006.0
20260902084557 50 143 0.0 0.0 0.00 0.00 0.00 71 1006.0
20260902083035 50 144 0.0 0.0 0.00 0.00 0.00 71 1005.9
20260902081559 50 144 0.0 0.0 0.00 0.00 0.00 71 1005.9
20260902080046 51 143 0.0 0.0 0.00 0.00 0.00 71 1005.8
20260902074544 51 143 0.0 0.0 0.00 0.00 0.00 70 1005.9
20260902073028 52 144 0.0 0.0 0.00 0.00 0.00 69 1005.9
20260902071508 52 143 0.0 0.0 0.00 0.00 0.00 67 1005.6
20260902070126 53 144 0.0 0.0 0.00 0.00 0.00 68 1005.3
20260902064504 53 143 0.0 0.0 0.00 0.00 0.00 68 1005.2
20260902063026 54 143 0.0 0.0 0.00 0.00 0.00 66 1005.0
20260902061611 55 143 0.0 0.0 0.00 0.00 0.00 64 1005.0
20260902060058 55 145 0.0 0.0 0.00 0.00 0.00 64 1005.1
20260902054540 56 145 0.0 0.0 0.00 0.00 0.00 62 1005.1
20260902053049 56 145 0.0 0.0 0.00 0.00 0.00 63 1005.1
20260902051600 56 145 0.0 0.0 0.00 0.00 0.00 65 1005.2
20260902050122 56 161 0.0 0.0 0.00 0.00 0.00 66 1005.4
20260902044552 57 161 0.0 0.0 0.00 0.00 0.00 65 1005.5
20260902043055 57 173 0.0 0.0 0.00 0.00 0.00 65 1005.6
20260902041555 58 182 0.0 0.0 0.00 0.00 0.00 63 1005.7
20260902040057 59 186 0.0 0.0 0.00 0.00 0.00 61 1005.7
20260902034558 59 141 0.0 0.0 0.00 0.00 0.00 60 1005.7
20260902033056 60 151 0.0 8.0 0.00 0.00 0.00 59 1005.5
20260902031542 60 148 1.0 11.0 0.00 0.00 0.00 58 1005.4
20260902030153 60 110 0.0 3.0 0.00 0.00 0.00 58 1005.3
20260902024610 60 161 3.0 10.0 0.00 0.00 0.00 58 1005.1
20260902023109 60 115 3.0 13.0 0.00 0.00 0.00 59 1004.9
20260902021604 60 92 4.0 10.0 0.00 0.00 0.00 60 1004.9
20260902020107 60 134 0.0 9.0 0.00 0.00 0.00 58 1004.6
20260902014552 61 161 0.0 0.0 0.00 0.01 0.00 54 1004.6
20260902013037 62 161 0.0 5.0 0.00 0.01 0.00 48 1004.6
20260902011532 64 158 0.0 0.0 0.00 0.01 0.00 43 1004.8
20260902010127 65 184 0.0 0.0 0.00 0.01 0.00 37 1005.0
20260902004601 66 184 0.0 0.0 0.00 0.01 0.00 36 1005.0
20260902003127 67 184 0.0 0.0 0.00 0.01 0.00 35 1005.1
20260902001655 68 198 0.0 0.0 0.00 0.01 0.00 34 1005.1
20260902000040 70 158 0.0 0.0 0.00 0.01 0.00 31 1005.0
20260901234541 71 167 0.0 2.0 0.00 0.01 0.00 30 1005.2
20260901233048 71 277 0.0 6.0 0.00 0.01 0.00 30 1005.2
20260901231521 69 269 0.0 0.0 0.00 0.01 0.00 30 1005.4
20260901230047 70 273 0.0 9.0 0.00 0.01 0.00 30 1005.7
20260901224553 71 117 0.0 0.0 0.00 0.01 0.00 29 1005.7
20260901223057 70 192 0.0 0.0 0.00 0.01 0.00 28 1005.9
20260901221600 70 117 0.0 0.0 0.00 0.01 0.00 30 1005.7
20260901220127 69 254 0.0 0.0 0.00 0.01 0.00 32 1005.9
20260901214522 69 244 0.0 0.0 0.00 0.01 0.00 28 1006.1
20260901213127 68 185 0.0 1.0 0.00 0.01 0.00 30 1006.2
20260901211508 70 196 0.0 4.0 0.00 0.01 0.00 27 1006.4
20260901210029 70 151 4.0 16.0 0.00 0.01 0.00 29 1006.6
20260901204506 68 175 0.0 2.0 0.00 0.01 0.00 35 1006.6
20260901203126 67 263 0.0 0.0 0.00 0.01 0.00 36 1006.7
20260901201629 67 273 0.0 0.0 0.00 0.01 0.00 37 1006.7
20260901200121 68 190 0.0 11.0 0.00 0.01 0.00 40 1006.8
20260901194532 69 217 0.0 7.0 0.00 0.01 0.00 37 1006.7
20260901193019 67 232 1.0 12.0 0.00 0.01 0.00 37 1006.8
20260901191532 64 346 0.0 11.0 0.00 0.01 0.00 44 1006.7
20260901190043 63 155 0.0 0.0 0.00 0.01 0.00 49 1007.1
20260901184524 63 120 0.0 0.0 0.00 0.01 0.00 49 1007.3
20260901183101 63 271 0.0 0.0 0.00 0.01 0.00 49 1007.3
20260901181552 65 258 0.0 0.0 0.00 0.01 0.00 47 1007.5
20260901180100 64 188 0.0 0.0 0.00 0.01 0.00 51 1007.6
20260901174510 64 355 0.0 0.0 0.00 0.01 0.00 47 1007.7
20260901173038 63 345 0.0 0.0 0.00 0.01 0.00 50 1007.9
20260901171542 63 175 0.0 9.0 0.00 0.01 0.00 52 1008.1